Regional Weather Roundup
Issued by NWS Boston, MA

Home | Current Version | Previous Version | Text Only | Print | Product List | Glossary On
Versions: 1 2 3 4 5 6 7 8 9 10 11 12 13 14 15 16 17 18 19 20 21 22 23 24 25 26 27 28 29 30 31 32 33 34 35 36 37 38 39 40 41 42 43 44 45 46 47 48 49 50
000
ASUS41 KBOX 170410
RWRBOX

REGIONAL WEATHER ROUNDUP
NATIONAL WEATHER SERVICE TAUNTON MA
1200 AM EDT WED SEP 17 2014

NOTE:  "FAIR" INDICATES FEW OR NO CLOUDS BELOW 12,000 FEET WITH NO
SIGNIFICANT WEATHER AND/OR OBSTRUCTIONS TO VISIBILITY.  THE FOLLOWING
OBSERVATION LOCATIONS DO NOT REPORT PRESENT WEATHER...PROVINCETOWN...
SMITHFIELD...BLOCK ISLAND...KEENE...AND OXFORD.

MAZALL-170500-
EASTERN MASSACHUSETTS

CITY           SKY/WX    TMP DP  RH WIND       PRES   REMARKS
BOSTON         PTCLDY    61  54  77 W5        29.99S
BEVERLY        FOG       50  48  93 CALM      29.98S VSB 3/4
LAWRENCE       PTCLDY    51  50  96 CALM      30.00S FOG
BEDFORD        FOG       49  49 100 CALM      29.98S VSB 1/2
BLUE HILL        N/A     56  52  86 W12       29.99R
NORWOOD        FOG       47  47 100 CALM      29.99S VSB 3/4
MARSHFIELD     NOT AVBL
PLYMOUTH       CLEAR     51  48  89 CALM      30.00R
TAUNTON        FOG       49  48  97 CALM      29.99S VSB 1/4
NEW BEDFORD    CLEAR     49  48  97 CALM      29.99S FOG
$$

MAZALL-170500-
CAPE COD AND THE ISLANDS

CITY           SKY/WX    TMP DP  RH WIND       PRES   REMARKS
FALMOUTH       CLEAR     50  48  93 CALM      29.99S
HYANNIS        CLEAR     51  48  89 CALM      29.98R
CHATHAM        CLEAR     55  53  93 CALM      29.99S
PROVINCETOWN   CLEAR     52  48  87 CALM      29.99S
NANTUCKET      CLOUDY    61  56  83 S6        29.99S
MARTHAS VNYRD  CLEAR     45  43  93 SW3       29.99R
$$

MAZALL-170500-
CENTRAL AND WESTERN MASSACHUSETTS

CITY           SKY/WX    TMP DP  RH WIND       PRES   REMARKS
WORCESTER      CLEAR     54  51  90 W9        30.01S
FITCHBURG      CLEAR     51  48  89 N5        30.01S
ORANGE         FOG       47  47 100 CALM      30.01S VSB 3/4
SPRINGFIELD    CLEAR     49  47  96 SE2       30.01R
WESTFIELD      CLEAR     53  49  86 N3        30.01R
NORTH ADAMS    CLEAR     45  44  97 CALM      30.03S
PITTSFIELD     CLEAR     46  44  93 W5        30.03R
$$

RIZALL-170500-
RHODE ISLAND

CITY           SKY/WX    TMP DP  RH WIND       PRES   REMARKS
PROVIDENCE     CLEAR     57  54  89 W3        30.00R
NEWPORT        PTCLDY    55  51  86 CALM      30.00R
BLOCK ISLAND   CLEAR     61  54  77 NW6       30.00S
SMITHFIELD     CLEAR     55  46  71 W7        30.00R
WESTERLY       CLEAR     53  51  93 CALM      30.01R
$$

CTZALL-170500-
CONNECTICUT

CITY           SKY/WX    TMP DP  RH WIND       PRES   REMARKS
BRADLEY INTL   PTCLDY    55  49  80 W3        30.01S
HARTFORD       FOG       54  53  97 MISG      30.02R VSB 3/4
BRIDGEPORT     PTCLDY    59  53  80 N5        30.02R
DANBURY        MOCLDY    54  52  93 SW3       30.04S
GROTON         CLEAR     56  55  97 CALM      30.00R
NEW HAVEN      PTCLDY    60  53  77 NW5       30.02S
CHESTER        FAIR      54  52  94 CALM      30.02S
MERIDEN        CLOUDY    52  50  93 CALM      30.03R
WILLIMANTIC    CLEAR     53  51  93 CALM      30.02S
OXFORD         PTCLDY    54  48  82 CALM      30.05R
$$

MEZ002-015-021-024-NHZ003-005-008-011-012-014-VTZ005-008-170500-
NORTHERN NEW ENGLAND

CITY           SKY/WX    TMP DP  RH WIND       PRES   REMARKS
PORTLAND ME    CLEAR     49  48  97 CALM      29.98S
BANGOR ME      CLEAR     52  50  93 CALM      29.95S
CONCORD NH     FOG       48  48 100 CALM      29.99S VSB 1/4
MANCHESTER NH  FOG       54  52  93 CALM      29.98R VSB 1/16
NASHUA NH      PTCLDY    51  49  93 CALM      30.00S
PORTSMOUTH NH  PTCLDY    54  53  96 SW2       29.97S
JAFFREY NH     CLEAR     47  45  93 CALM      30.01S
KEENE NH       CLOUDY    48  43  81 CALM      30.01S VSB 1/4
BURLINGTON VT  CLEAR     51  48  89 CALM      29.98S
MT. WASHINGTON FOG       34  34 100 W33G39      N/A  VSB 0   WCI  19
$$

NYZ052-076-170500-
EASTERN NEW YORK

CITY           SKY/WX    TMP DP  RH WIND       PRES   REMARKS
ALBANY         CLEAR     51  45  79 W8        30.03S
NEW YORK CITY  PTCLDY    65  50  58 NW5       30.02R
$$

ANZALL-170500-
MARINE OBSERVATIONS

STATION/POSITION TIME  TEMP    WIND        PRES    VSBY  WAVE
                       AIR SEA DIR/SP/G                  HT/PER
                 (UTC) (F)     (DEG/KT/KT) (MB)    (MI)  (FT/S)
BOSTON BUOY      0350   60 61  240/  4/  4 1015.8R         1/ 8
BUZZARDS BAY     0300          310/  8/  9 1016.1S
NANTUCKET SOUND  0350   65 67  290/  6/  8 1015.2R         1
MASS BAY-STELLWA 0304   60 60  280/  2/  2   N/A    1 7/8  1/ 8
ISLE OF SHOALS   0400   59     240/  7/  8 1014.6R
S OF BLOCK IS    0308      66                N/A           2/13
$$

......................KEY.........................
  SKY/WX - SKY CONDITION/PRESENT WEATHER
  TMP    - TEMPERATURE IN FAHRENHEIT
  DWPT   - DEWPOINT IN FAHRENHEIT
  RH     - RELATIVE HUMIDITY IN PERCENT
  WIND   - DIRECTION AND SPEED IN MPH
  PRES   - MEAN SEA LEVEL PRESSURE IN INCHES OF HG
  WCI    - WIND CHILL INDEX
  VSB    - VISIBILITY IN MILES
  HX     - HEAT INDEX
  TC     - TEMPERATURE IN CELSIUS
  VRB    - VARIABLE WIND DIRECTION
  N/A    - NOT AVAILABLE


USA.gov is the U.S. government's official web portal to all federal, state and local government web resources and services.